Flag for Italy Weather past 2 weeks in Palermo, Italy

Now
84 °F

Sunny.


Feels Like: 88 °F
Forecast: 73 / 85 °F
Wind: 2 mph from North

Location: Palermo / Punta Raisi

Current Time: Aug 28, 2014 at 10:17:51 AM

Latest Report: Aug 28, 2014 at 9:50 AM


Visibility: 10 mi

Pressure: 29.95 "Hg

Humidity: 62%

Dew point: 70 °F

Location of PalermoLocation

Historic Weather in Palermo — Graph

°F

Palermo temperature yesterday

Maximum temperature yesterday: 86 °F (at 2:20 PM)
Minimum temperature yesterday: 72 °F (at 4:20 AM)
Average temperature yesterday: 79 °F

Past Weeks' High & Low Weather Summary

 TemperatureHumidityPressure
High91 °F (Aug 13, 7:20 PM)94% (Aug 21, 4:20 AM)30.07 "Hg (Aug 21, 4:20 AM)
Low68 °F (Aug 26, 6:50 AM)24% (Aug 13, 7:50 PM)29.80 "Hg (Aug 13, 6:50 PM)
Average80 °F68%29.98 "Hg
* Reported Aug 13 8:20 AM — Aug 28 8:50 AM, Palermo, Weather by CustomWeather, © 2014

Note: Actual official high and low records may vary slightly from our data, if they occured in-between our weather recording intervals... More about our weather records

Advertising

Palermo weather history for previous 24 hours

 ConditionsComfort  
Time TempWeatherWind HumidityBarometerVisibility
8:50 AM
Aug 28
82 °FSunny.2 mph62%29.92 "Hg10 mi
8:20 AM79 °FSunny.3 mph70%29.92 "Hg10 mi
7:50 AM79 °FSunny.3 mph70%29.92 "Hg10 mi
7:20 AM73 °FClear.3 mph74%29.92 "Hg10 mi
6:50 AM72 °FClear.3 mph73%29.92 "Hg10 mi
6:20 AM73 °FClear.1 mph69%29.92 "Hg10 mi
5:50 AM73 °FClear.1 mph69%29.92 "Hg10 mi
5:20 AM73 °FClear.2 mph69%29.92 "Hg10 mi
4:50 AM73 °FClear.2 mph69%29.92 "Hg10 mi
4:20 AM73 °FClear.1 mph69%29.92 "Hg10 mi
3:50 AM73 °FClear.No wind69%29.92 "Hg10 mi
3:20 AM75 °FClear.1 mph69%29.92 "Hg10 mi
2:50 AM73 °FClear.3 mph69%29.92 "Hg10 mi
2:20 AM73 °FClear.1 mph69%29.92 "Hg10 mi
1:50 AM75 °FClear.1 mph65%29.92 "Hg10 mi
1:20 AM75 °FClear.2 mph69%29.92 "Hg10 mi
12:50 AM75 °FClear.2 mph74%29.92 "Hg10 mi
12:20 AM75 °FClear.2 mph69%29.92 "Hg10 mi
11:50 PM
Aug 27
77 °FPassing clouds.3 mph74%29.92 "HgN/A
11:20 PM77 °FPassing clouds.3 mph74%29.92 "HgN/A
10:50 PM77 °FClear.5 mph69%29.92 "Hg10 mi
10:20 PM77 °FClear.6 mph69%29.95 "Hg10 mi
9:50 PM81 °FClear.7 mph74%29.92 "Hg10 mi
9:20 PM79 °FClear.8 mph74%29.92 "Hg10 mi
8:50 PM81 °FClear.10 mph66%29.92 "Hg10 mi
8:20 PM81 °FSunny.12 mph66%29.92 "Hg10 mi
7:50 PM81 °FSunny.13 mph62%29.92 "Hg10 mi
7:20 PM82 °FSunny.13 mph66%29.92 "Hg10 mi
6:50 PM82 °FSunny.14 mph66%29.89 "Hg10 mi
6:20 PM82 °FSunny.14 mph66%29.92 "Hg10 mi
5:50 PM84 °FSunny.12 mph62%29.92 "Hg10 mi
4:20 PM86 °FSunny.12 mph52%29.92 "Hg10 mi
3:50 PM86 °FSunny.12 mph55%29.95 "Hg10 mi
3:20 PM86 °FSunny.12 mph52%29.95 "Hg10 mi
2:50 PM86 °FSunny.10 mph49%29.95 "Hg10 mi
2:20 PM86 °FSunny.12 mph55%29.95 "Hg10 mi
1:50 PM84 °FSunny.12 mph55%29.95 "Hg10 mi
1:20 PM84 °FSunny.12 mph62%29.95 "Hg10 mi
12:50 PM84 °FSunny.10 mph62%29.98 "Hg10 mi
12:20 PM82 °FSunny.12 mph66%29.98 "Hg10 mi
11:50 AM82 °FSunny.10 mph66%29.98 "Hg10 mi
11:20 AM82 °FSunny.9 mph62%29.98 "Hg10 mi
10:50 AM82 °FSunny.9 mph66%29.98 "Hg10 mi
10:20 AM81 °FSunny.8 mph70%29.98 "Hg10 mi
Weather by CustomWeather, © 2014

See weather overviewHow to use our weather pages